Meteo Giornale » Osservazioni meteo Gran Bretagna » Belfast-Aldergrove

ore: 08:50 - Osservazioni Meteo Belfast-Aldergrove
Lat. 54° 39' N Lon. 6° 13' W Alt. 81 metri s.l.m.

molto_nuvoloso Europe/London

15 °C

Molto Nuvoloso

Temp. 24 Ore

14 °C

24 °C

Est

16.7 Km/h

Dew point 14 °C

Umidità 93 %

Visibilità  10 Km

Il sole sorge alle ore 05:57

Il sole tramonta alle ore 21:00

Data e Ora Cielo e Fenomeni T °C DP °C Um. % Pres. hPa Vis. km Vento km/h
Oggi h: 08:50 molto_nuvoloso Molto Nuvoloso 15 14 93 1017 10 E 16.7
Oggi h: 08:20 molto_nuvoloso Molto Nuvoloso 15 14 93 1017 10 E/NE 14.8
Oggi h: 07:50 coperto Coperto 14 14 100 1017 9 E/NE 14.8
Oggi h: 07:20 molto_nuvoloso Molto Nuvoloso 14 14 100 1017 8 E/NE 16.7
Oggi h: 06:50 molto_nuvoloso Molto Nuvoloso 14 14 100 1017 8 E 16.7
Oggi h: 06:20 molto_nuvoloso Molto Nuvoloso 14 14 100 1016 9 E/NE 20.3
Oggi h: 05:50 molto_nuvoloso Molto Nuvoloso 14 14 100 1016 8 E 16.7
Oggi h: 05:20 molto_nuvoloso Molto Nuvoloso 14 14 100 1016 10 NE 14.8
Oggi h: 04:50 nuvoloso Nuvoloso 14 14 100 1016 10 E/NE 16.7
Oggi h: 04:20 sereno Sereno 15 14 93 1016 10 E/NE 16.7
Oggi h: 03:50 sereno Sereno 15 14 93 1016 9 E/NE 13
Oggi h: 03:20 poco_nuvoloso Poco Nuvoloso 15 14 93 1017 8 E 14.8
Oggi h: 02:50 molto_nuvoloso Molto Nuvoloso 15 14 93 1017 7 E 14.8
Oggi h: 02:20 sereno Sereno 16 15 93 1017 10 E 13
Oggi h: 01:50 sereno Sereno 15 15 100 1017 10 E 9.3
Oggi h: 01:20 sereno Sereno 16 14 87 1017 10 E 9.3
Oggi h: 00:50 sereno Sereno 16 15 93 1017 10 E 7.4
Ieri h: 23:50 sereno Sereno 16 15 93 1017 10 E 11.1
Ieri h: 23:20 sereno Sereno 16 15 93 1017 10 E 13
Ieri h: 22:50 sereno Sereno 17 15 88 1017 10 E 11.1
Ieri h: 22:20 sereno Sereno 17 15 88 1017 10 E 14.8
Ieri h: 21:50 sereno Sereno 18 16 88 1017 10 E 13
Ieri h: 21:20 sereno Sereno 18 16 88 1017 10 E 18.5
Ieri h: 20:50 sereno Sereno 19 16 82 1016 10 E 18.5
Ieri h: 20:20 sereno Sereno 19 16 82 1016 10 E 18.5
Ieri h: 19:50 sereno Sereno 20 16 77 1016 10 E 20.3
Ieri h: 19:20 sereno Sereno 20 17 82 1016 10 E 18.5
Ieri h: 18:50 sereno Sereno 21 17 77 1016 10 E 18.5
Ieri h: 18:20 sereno Sereno 21 17 77 1016 10 E 20.3
Ieri h: 17:50 sereno Sereno 22 18 78 1016 10 E 20.3
Ieri h: 16:50 sereno Sereno 23 18 73 1016 10 E/NE 22.2
Ieri h: 15:50 poco_nuvoloso Poco Nuvoloso 22 18 78 1016 10 E 22.2
Ieri h: 15:20 poco_nuvoloso Poco Nuvoloso 23 18 73 1016 10 E/NE 20.3
Ieri h: 14:50 poco_nuvoloso Poco Nuvoloso 23 18 73 1016 10 E 20.3
Ieri h: 14:20 sereno Sereno 24 18 69 1016 10 NE 11.1
Ieri h: 13:50 sereno Sereno 23 17 68 1016 10 E/NE 11.1
Ieri h: 13:20 sereno Sereno 22 17 73 1017 10 E 16.7
Ieri h: 12:20 sereno Sereno 21 17 77 1017 10 E/NE 13
Ieri h: 11:20 sereno Sereno 20 17 82 1017 10 E/NE 14.8
Ieri h: 10:50 sereno Sereno 20 17 82 1017 10 E/NE 14.8
Ieri h: 10:20 poco_nuvoloso Poco Nuvoloso 19 17 88 1017 10 E/NE 14.8
Ieri h: 09:50 sereno Sereno 19 17 88 1016 10 E 14.8